This is the latest recevied weather packets stored in our database for station/object KC5TIL-3. If no packets are shown the sender has not sent any weather packets the latest 10 day(s).
| Time | Temp. | Humidity | Pressure | Rain* | Wind** | Luminosity | Snow |
|---|---|---|---|---|---|---|---|
| 1787881483 | 34.44° C | 14% | 1010.8 hPa | 0 mm | 0 m/s | - | - |
| 1787881182 | 34.44° C | 14% | 1010.8 hPa | 0 mm | 2.68 m/s, 119° | - | - |
| 1787880883 | 34.44° C | 14% | 1010.8 hPa | 0 mm | 1.79 m/s, 189° | - | - |
| 1787880585 | 34.44° C | 14% | 1010.8 hPa | 0 mm | 1.79 m/s, 101° | - | - |
| 1787880284 | 34.44° C | 14% | 1010.8 hPa | 0 mm | 2.24 m/s, 347° | - | - |
| 1787879986 | 35° C | 14% | 1010.8 hPa | 0 mm | 1.79 m/s, 24° | - | - |
| 1787879687 | 35° C | 14% | 1010.8 hPa | 0 mm | 3.13 m/s, 125° | - | - |
| 1787879385 | 35° C | 14% | 1010.8 hPa | 0 mm | 1.79 m/s, 168° | - | - |
| 1787879082 | 35° C | 14% | 1010.8 hPa | 0 mm | 2.24 m/s, 162° | - | - |
| 1787878779 | 35° C | 14% | 1010.8 hPa | 0 mm | 1.79 m/s, 139° | - | - |
| 1787878478 | 35° C | 14% | 1010.8 hPa | 0 mm | 1.79 m/s, 142° | - | - |
| 1787878170 | 35° C | 14% | 1010.8 hPa | 0 mm | 2.68 m/s, 105° | - | - |
| 1787877872 | 35° C | 14% | 1009.8 hPa | 0 mm | 1.79 m/s, 79° | - | - |
| 1787877571 | 35.56° C | 14% | 1009.8 hPa | 0 mm | 1.79 m/s, 47° | - | - |
| 1787877272 | 35.56° C | 13% | 1009.8 hPa | 0 mm | 1.34 m/s, 323° | - | - |
| 1787876974 | 35.56° C | 13% | 1010.8 hPa | 0 mm | 2.24 m/s, 317° | - | - |
| 1787876673 | 35.56° C | 13% | 1010.8 hPa | 0 mm | 1.79 m/s, 32° | - | - |
| 1787876375 | 35.56° C | 13% | 1010.8 hPa | 0 mm | 2.24 m/s, 309° | - | - |
| 1787876077 | 35.56° C | 13% | 1010.8 hPa | 0 mm | 1.34 m/s, 56° | - | - |
| 1787875775 | 36.11° C | 13% | 1010.8 hPa | 0 mm | 3.13 m/s, 153° | - | - |
| 1787875477 | 36.11° C | 13% | 1010.8 hPa | 0 mm | 0 m/s | - | - |
| 1787875179 | 35.56° C | 13% | 1010.8 hPa | 0 mm | 2.24 m/s, 347° | - | - |
| 1787874878 | 35.56° C | 13% | 1010.8 hPa | 0 mm | 1.79 m/s, 345° | - | - |
| 1787874579 | 35.56° C | 13% | 1010.8 hPa | 0 mm | 2.24 m/s, 48° | - | - |
| 1787874276 | 35.56° C | 13% | 1010.8 hPa | 0 mm | 1.79 m/s, 309° | - | - |
* Rain latest hour (hover to see other rain measurements)
** Current wind speed in m/s (hover to see current wind gust speed)